TimeCDT,TemperatureF,Dew PointF,Humidity,Sea Level PressureIn,VisibilityMPH,Wind Direction,Wind SpeedMPH,Gust SpeedMPH,PrecipitationIn,Events,Conditions,WindDirDegrees,DateUTC
12:53 AM,63.0,59.0,87,29.99,10.0,Calm,Calm,-,N/A,,Mostly Cloudy,0,2013-04-07 05:53:00
1:53 AM,63.0,57.9,84,29.97,10.0,SE,3.5,-,N/A,,Mostly Cloudy,140,2013-04-07 06:53:00
2:53 AM,62.1,57.0,84,29.96,10.0,SE,3.5,-,N/A,,Mostly Cloudy,140,2013-04-07 07:53:00
3:53 AM,62.1,57.0,84,29.94,10.0,SE,4.6,-,N/A,,Mostly Cloudy,140,2013-04-07 08:53:00
4:53 AM,60.1,55.9,86,29.94,10.0,Calm,Calm,-,N/A,,Mostly Cloudy,0,2013-04-07 09:53:00
5:53 AM,59.0,57.0,93,29.94,7.0,Calm,Calm,-,N/A,,Mostly Cloudy,0,2013-04-07 10:53:00
6:53 AM,62.1,59.0,90,29.96,10.0,Calm,Calm,-,N/A,,Overcast,0,2013-04-07 11:53:00
7:53 AM,63.0,60.1,90,29.97,9.0,SE,5.8,-,N/A,,Clear,140,2013-04-07 12:53:00
8:53 AM,68.0,60.1,76,29.99,10.0,SSE,9.2,-,N/A,,Clear,150,2013-04-07 13:53:00
9:53 AM,71.1,59.0,66,30.00,10.0,SSE,13.8,18.4,N/A,,Mostly Cloudy,160,2013-04-07 14:53:00
10:53 AM,73.0,57.9,59,30.01,10.0,South,12.7,20.7,N/A,,Scattered Clouds,170,2013-04-07 15:53:00
11:53 AM,73.9,57.0,55,30.01,10.0,SSE,13.8,20.7,N/A,,Mostly Cloudy,150,2013-04-07 16:53:00
12:53 PM,75.0,57.0,53,29.99,10.0,SSE,15.0,20.7,N/A,,Mostly Cloudy,160,2013-04-07 17:53:00
1:53 PM,75.0,57.0,53,29.97,10.0,SSE,13.8,23.0,N/A,,Mostly Cloudy,160,2013-04-07 18:53:00
2:53 PM,75.9,57.0,52,29.94,10.0,South,15.0,-,N/A,,Mostly Cloudy,180,2013-04-07 19:53:00
3:53 PM,75.0,57.0,53,29.92,10.0,SSE,12.7,-,N/A,,Overcast,160,2013-04-07 20:53:00
4:53 PM,73.9,57.0,55,29.91,10.0,SSE,15.0,24.2,N/A,,Mostly Cloudy,150,2013-04-07 21:53:00
5:53 PM,72.0,57.9,61,29.88,10.0,SSE,12.7,23.0,N/A,,Mostly Cloudy,160,2013-04-07 22:53:00
6:53 PM,72.0,59.0,64,29.89,10.0,SSE,10.4,18.4,N/A,,Overcast,160,2013-04-07 23:53:00
7:53 PM,70.0,60.1,71,29.90,10.0,SSE,8.1,-,N/A,,Mostly Cloudy,150,2013-04-08 00:53:00
8:53 PM,69.1,61.0,75,29.91,10.0,SE,10.4,-,N/A,,Overcast,140,2013-04-08 01:53:00
9:21 PM,68.0,62.6,83,29.91,10.0,SE,9.2,-,N/A,,Overcast,140,2013-04-08 02:21:00
9:30 PM,68.0,62.6,83,29.91,10.0,SSE,6.9,-,N/A,,Overcast,150,2013-04-08 02:30:00
9:53 PM,68.0,62.1,81,29.91,10.0,SSE,8.1,-,N/A,,Mostly Cloudy,150,2013-04-08 02:53:00
10:53 PM,66.9,63.0,87,29.91,10.0,SE,8.1,-,N/A,,Partly Cloudy,140,2013-04-08 03:53:00
11:53 PM,66.9,63.0,87,29.90,9.0,SE,6.9,-,N/A,,Scattered Clouds,140,2013-04-08 04:53:00